Home > Weather > Nannestad > Past weeks

Flag for Norway Weather for the Past 2 Weeks in Nannestad, Norway

Now
36 °F

Light rain. Passing clouds.


Feels Like: 27 °F
Forecast: 26 / 36 °F
Wind: 12 mph from South

Location: Oslo Gardermoen Airport

Current Time: Feb 8, 2016 at 8:49:59 PM

Latest Report: Feb 8, 2016 at 7:50 PM


Visibility: N/A

Pressure: 28.77 "Hg

Humidity: 100%

Dew point: 36 °F

Location of NannestadLocation

Historic Weather in Nannestad — Graph

°F

Nannestad Temperature Yesterday

Maximum temperature yesterday: 39 °F (at 4:20 AM)
Minimum temperature yesterday: 34 °F (at 12:50 AM)
Average temperature yesterday: 38 °F

High & Low Weather Summary for the Past Weeks

 TemperatureHumidityPressure
High41 °F (Jan 29, 4:50 PM)100% (Jan 25, 10:20 AM)30.04 "Hg (Jan 25, 10:20 AM)
Low19 °F (Feb 1, 4:20 AM)38% (Feb 4, 1:20 PM)28.77 "Hg (Feb 2, 4:50 PM)
Average32 °F81%29.31 "Hg
* Reported Jan 24 7:20 PM — Feb 8 7:50 PM, Nannestad, Weather by CustomWeather, © 2016

Note: Actual official high and low records may vary slightly from our data, if they occured in-between our weather recording intervals... More about our weather records

Advertising

Nannestad Weather History for the Previous 24 Hours

 ConditionsComfort  
Time TempWeatherWind HumidityBarometerVisibility
7:50 PM
Mon, Feb 8
36 °FLight rain. Passing clouds.12 mph100%28.77 "HgN/A
7:20 PM36 °FLight rain. Partly cloudy.8 mph93%28.77 "HgN/A
6:50 PM36 °FLight rain. Partly cloudy.12 mph93%28.77 "HgN/A
6:20 PM36 °FLight rain. Partly cloudy.14 mph93%28.77 "HgN/A
5:50 PM36 °FLight rain. Passing clouds.10 mph93%28.77 "Hg5 mi
5:20 PM36 °FLight rain. Passing clouds.2 mph93%28.77 "Hg4 mi
4:50 PM34 °FLight rain. Passing clouds.6 mph100%28.77 "Hg5 mi
4:20 PM34 °FLight rain. Partly sunny.6 mph93%28.77 "Hg4 mi
3:50 PM32 °FLight rain. Partly sunny.6 mph100%28.77 "Hg4 mi
3:20 PM32 °FLight rain. Partly sunny.7 mph100%28.80 "Hg2 mi
2:50 PM34 °FLight snow. Partly sunny.6 mph93%28.80 "Hg2 mi
2:20 PM34 °FLight snow. Partly sunny.6 mph93%28.80 "Hg1 mi
1:50 PM34 °FLight snow. Partly sunny.5 mph93%28.80 "Hg2 mi
1:20 PM34 °FRain. Broken clouds.7 mph93%28.82 "Hg3 mi
12:50 PM34 °FRain. Partly sunny.8 mph93%28.82 "Hg3 mi
12:20 PM34 °FRain. Broken clouds.10 mph93%28.85 "Hg4 mi
11:50 AM36 °FLight rain. Broken clouds.10 mph93%28.85 "Hg4 mi
11:20 AM36 °FLight rain. Partly sunny.12 mph93%28.85 "Hg5 mi
10:50 AM36 °FLight rain. Partly sunny.12 mph93%28.88 "Hg5 mi
10:20 AM36 °FLight rain. Partly sunny.15 mph93%28.88 "Hg4 mi
9:50 AM36 °FLight rain. Partly sunny.16 mph93%28.91 "Hg4 mi
9:20 AM36 °FLight rain. Partly sunny.21 mph93%28.91 "Hg4 mi
8:50 AM37 °FLight rain. Partly sunny.18 mph87%28.91 "Hg4 mi
8:20 AM37 °FMixture of precip. Partly sunny.17 mph87%28.91 "HgN/A
7:50 AM37 °FLight rain. Passing clouds.17 mph87%28.94 "HgN/A
7:20 AM36 °FLight rain. Low clouds.14 mph93%28.94 "HgN/A
6:50 AM36 °FLight rain. Passing clouds.17 mph93%28.94 "HgN/A
6:20 AM37 °FLight rain. Passing clouds.15 mph87%28.97 "HgN/A
5:50 AM37 °FLight rain. Passing clouds.18 mph87%28.97 "HgN/A
5:20 AM37 °FSprinkles. Passing clouds.18 mph87%28.97 "HgN/A
4:50 AM37 °FSprinkles. Passing clouds.15 mph87%29.00 "HgN/A
4:20 AM37 °FSprinkles. Passing clouds.16 mph87%29.00 "HgN/A
3:50 AM37 °FSprinkles. Passing clouds.18 mph87%29.00 "HgN/A
3:20 AM37 °FPassing clouds.20 mph87%29.00 "HgN/A
2:50 AM37 °FPassing clouds.21 mph87%29.00 "HgN/A
2:20 AM36 °FSprinkles. Passing clouds.21 mph93%29.03 "HgN/A
1:50 AM36 °FPassing clouds.21 mph93%29.03 "HgN/A
1:20 AM37 °FPartly cloudy.21 mph87%29.03 "HgN/A
12:50 AM36 °FPartly cloudy.22 mph93%29.03 "HgN/A
12:20 AM36 °FLight rain. Partly cloudy.17 mph93%29.06 "HgN/A
11:50 PM
Sun, Feb 7
36 °FPassing clouds.18 mph87%29.06 "HgN/A
11:20 PM36 °FPassing clouds.21 mph87%29.06 "HgN/A
10:50 PM37 °FPassing clouds.20 mph87%29.06 "HgN/A
10:20 PM37 °FSprinkles. Passing clouds.20 mph87%29.06 "HgN/A
9:50 PM37 °FSprinkles. Passing clouds.23 mph87%29.06 "HgN/A
9:20 PM37 °FOvercast.20 mph93%29.09 "HgN/A
8:50 PM37 °FPassing clouds.17 mph87%29.09 "HgN/A
8:20 PM37 °FPassing clouds.18 mph87%29.09 "HgN/A
Weather by CustomWeather, © 2016

See weather overviewHow to use our weather pages